Coffs Harbour Airport Observation History
Time Wind Speed Temp Pressure Rel. Hum Rain
14/10:30am W 7-10 kts 20.1°c 1013.5 hPa 48% 0.0mm
14/10:00am SSW 2-5 kts 19.6°c 1013.8 hPa 56% 0.0mm
14/09:30am SW 3-5 kts 18.4°c 1013.8 hPa 58% 0.0mm
14/09:00am W 4-6 kts 17.2°c 1013.5 hPa 70% 0.0mm
14/08:30am WSW 4-5 kts 16.1°c 1013.6 hPa 82% 0.0mm
14/08:00am CALM 0-3 kts 13.2°c 1013.6 hPa 94% 0.0mm
14/07:30am W 3-4 kts 11.4°c 1013.3 hPa 95% 0.0mm
14/07:00am W 1-4 kts 9.5°c 1013.0 hPa 95% 0.0mm
14/06:30am CALM 0 kts 8.0°c 1012.7 hPa 95% 0.0mm
14/06:00am WSW 1-5 kts 8.7°c 1012.1 hPa 95% 0.0mm
14/05:30am WSW 1-5 kts 7.8°c 1011.8 hPa 94% 0.0mm
14/05:00am SW 1-7 kts 8.4°c 1011.4 hPa 94% 0.0mm
14/04:30am CALM 0 kts 8.6°c 1011.1 hPa 93% 0.0mm
14/04:00am CALM 0 kts 9.6°c 1011.2 hPa 94% 0.0mm
14/03:30am W 5-6 kts 9.8°c 1011.0 hPa 95% 0.0mm
14/03:00am CALM 0 kts 9.6°c 1011.1 hPa 94% 0.0mm
14/02:54am CALM 0 kts 10.0°c 1011.0 hPa 95% 0.0mm
14/02:37am CALM 0 kts 9.5°c 1011.1 hPa 94% 0.0mm
14/02:30am CALM 0 kts 9.7°c 1011.0 hPa 94% 0.0mm
14/02:28am CALM 0 kts 10.0°c 1011.0 hPa 94% 0.0mm
14/02:09am CALM 0 kts 9.9°c 1011.1 hPa 94% 0.0mm
14/02:00am CALM 0 kts 10.2°c 1011.2 hPa 94% 0.0mm
14/01:30am CALM 0 kts 10.9°c 1011.4 hPa 94% 0.0mm
14/01:27am WNW 1-4 kts 11.3°c 1011.4 hPa 94% 0.0mm
14/01:04am WNW 3-4 kts 11.6°c 1011.5 hPa 94% 0.0mm
14/01:00am WNW 2-4 kts 11.8°c 1011.5 hPa 94% 0.0mm
14/12:30am WNW 5-7 kts 12.8°c 1011.7 hPa 94% 0.0mm
14/12:00am W 4-5 kts 12.9°c 1011.8 hPa 95% 0.0mm
Time Wind Speed Temp Pressure Rel. Hum Rain
13/11:30pm W 4-5 kts 12.6°c 1011.9 hPa 94% 0.0mm
13/11:00pm W 3-4 kts 13.5°c 1012.2 hPa 94% 0.0mm
13/10:30pm CALM 0 kts 13.5°c 1012.4 hPa 94% 0.0mm
13/10:25pm CALM 0 kts 13.7°c 1012.3 hPa 94% 0.0mm
13/10:00pm CALM 0 kts 13.6°c 1012.3 hPa 94% 0.0mm
13/09:42pm CALM 0 kts 13.8°c 1012.4 hPa 94% 0.0mm
13/09:35pm CALM 0 kts 13.9°c 1012.4 hPa 94% 0.0mm
13/09:30pm CALM 0 kts 13.9°c 1012.4 hPa 93% 0.0mm
13/09:06pm CALM 0 kts 14.2°c 1012.4 hPa 93% 0.0mm
13/09:00pm CALM 0 kts 14.5°c 1012.4 hPa 93% 0.0mm
13/08:30pm CALM 0 kts 14.5°c 1012.3 hPa 93% 0.0mm
13/08:00pm CALM 0 kts 14.8°c 1012.0 hPa 93% 0.0mm
13/07:30pm SW 1-4 kts 15.0°c 1012.0 hPa 92% 0.0mm
13/07:00pm SW 1-3 kts 15.5°c 1011.8 hPa 92% 0.0mm
13/06:30pm SW 1-4 kts 15.5°c 1011.6 hPa 91% 0.0mm
13/06:00pm CALM 0 kts 16.1°c 1011.3 hPa 89% 0.0mm
13/05:30pm SW 4-5 kts 16.6°c 1010.9 hPa 86% 0.0mm
13/05:00pm CALM 0 kts 18.0°c 1010.7 hPa 78% 0.0mm
13/04:30pm SSE 4-5 kts 20.6°c 1010.5 hPa 68% 0.0mm
13/04:00pm SSE 5-6 kts 21.0°c 1010.2 hPa 67% 0.0mm
13/03:30pm S 4-6 kts 21.1°c 1010.2 hPa 69% 0.0mm
13/03:00pm SSE 7-8 kts 21.1°c 1010.0 hPa 68% 0.0mm
13/02:30pm SSE 6-7 kts 21.1°c 1010.0 hPa 68% 0.0mm
13/02:00pm SSE 7-8 kts 21.5°c 1010.1 hPa 69% 0.0mm
13/01:30pm SSE 6-8 kts 20.8°c 1010.3 hPa 68% 0.0mm
13/01:00pm SSE 7-9 kts 21.1°c 1010.6 hPa 67% 0.0mm
13/12:30pm SSE 7-10 kts 20.7°c 1011.1 hPa 70% 0.0mm
13/12:00pm SSE 7-9 kts 20.9°c 1011.6 hPa 70% 0.0mm
13/11:30am SSE 7-10 kts 20.5°c 1012.2 hPa 69% 0.0mm
13/11:00am S 9-12 kts 20.6°c 1012.7 hPa 70% 0.0mm
13/10:30am S 8-10 kts 20.3°c 1013.0 hPa 68% 0.0mm
13/10:00am S 7-11 kts 20.2°c 1013.4 hPa 72% 0.0mm
13/09:30am SSW 6-8 kts 19.5°c 1013.6 hPa 75% 0.0mm
13/09:00am SW 5-6 kts 19.0°c 1013.7 hPa 83% 25.2mm
13/08:30am WSW 5-6 kts 17.5°c 1013.9 hPa 92% 25.2mm
13/08:00am SW 6-7 kts 16.1°c 1013.9 hPa 95% 25.2mm
13/07:30am SSW 6-7 kts 15.2°c 1013.8 hPa 95% 25.2mm
13/07:00am WSW 2-4 kts 14.2°c 1013.4 hPa 96% 25.2mm
13/06:44am CALM 0 kts 13.5°c 1013.4 hPa 95% 25.2mm
13/06:30am WSW 3-4 kts 13.5°c 1013.3 hPa 95% 25.2mm
13/06:25am SW 3-4 kts 13.6°c 1013.3 hPa 95% 25.2mm
13/06:00am WSW 3-4 kts 13.9°c 1013.2 hPa 95% 25.2mm
13/05:30am W 3-4 kts 14.0°c 1013.2 hPa 95% 25.2mm
13/05:00am WSW 5-7 kts 14.4°c 1013.3 hPa 95% 25.2mm
13/04:30am WSW 4-6 kts 14.7°c 1013.3 hPa 95% 25.2mm
13/04:00am WSW 4-5 kts 15.0°c 1013.5 hPa 95% 25.2mm
13/03:30am W 4-5 kts 14.9°c 1013.8 hPa 95% 25.2mm
13/03:00am W 1-4 kts 14.8°c 1013.9 hPa 95% 25.2mm
13/02:30am W 2-5 kts 14.9°c 1014.3 hPa 95% 25.2mm
13/02:00am W 2-5 kts 15.0°c 1014.4 hPa 94% 25.0mm
13/01:30am CALM 0 kts 15.3°c 1015.0 hPa 94% 25.0mm
13/01:00am CALM 0 kts 15.5°c 1015.3 hPa 94% 25.0mm
13/12:30am W 3-4 kts 15.7°c 1015.5 hPa 94% 25.0mm
13/12:00am CALM 0 kts 15.7°c 1015.9 hPa 94% 25.0mm
Time Wind Speed Temp Pressure Rel. Hum Rain
12/11:30pm W 2-6 kts 15.7°c 1016.2 hPa 95% 25.0mm
12/11:00pm CALM 0 kts 15.7°c 1016.4 hPa 95% 25.0mm
12/10:30pm W 4-6 kts 15.6°c 1016.2 hPa 95% 25.0mm
12/10:00pm WNW 4-5 kts 15.8°c 1016.4 hPa 95% 25.0mm
12/09:30pm W 5-7 kts 15.8°c 1016.8 hPa 95% 24.4mm
12/09:00pm W 4-5 kts 15.8°c 1016.9 hPa 94% 24.2mm
12/08:30pm WNW 3-5 kts 15.8°c 1017.2 hPa 94% 24.2mm
12/08:00pm W 5-6 kts 15.8°c 1017.2 hPa 94% 24.2mm
12/07:39pm S 6-9 kts 15.8°c 1017.2 hPa 93% 24.2mm
12/07:30pm SSE 7-9 kts 15.8°c 1017.3 hPa 93% 24.2mm
12/07:00pm WSW 8-11 kts 15.8°c 1018.0 hPa 93% 16.6mm
12/06:40pm W 9-14 kts 16.4°c 1017.6 hPa 91% 3.4mm
12/06:30pm WSW 15-21 kts 16.7°c 1017.3 hPa 91% 2.0mm
12/06:23pm SW 15-21 kts 16.9°c 1017.1 hPa 91% 2.0mm
12/06:00pm WSW 7-8 kts 18.1°c 1016.9 hPa 91% 1.2mm
12/05:48pm SSW 8-10 kts 18.2°c 1016.7 hPa 90% 0.6mm
12/05:38pm SSW 8-10 kts 18.2°c 1016.7 hPa 90% 0.6mm
12/05:30pm SSW 9-12 kts 18.3°c 1016.5 hPa 89% 0.6mm
12/05:00pm S 7-10 kts 19.5°c 1016.4 hPa 87% 0.2mm
12/04:30pm WSW 6-8 kts 19.9°c 1016.1 hPa 88% 0.2mm
12/04:29pm WSW 6-9 kts 19.9°c 1016.1 hPa 88% 0.2mm
12/04:12pm W 3-6 kts 20.2°c 1016.1 hPa 87% 0.2mm
12/04:00pm W 3-4 kts 20.4°c 1016.0 hPa 87% 0.2mm
12/03:30pm SW 2-5 kts 20.5°c 1016.2 hPa 85% 0.2mm
12/03:26pm SW 4-6 kts 20.7°c 1016.4 hPa 85% 0.2mm
12/03:10pm SSE 5 kts 20.6°c 1016.2 hPa 83% 0.2mm
12/03:00pm SE 3-5 kts 20.7°c 1016.0 hPa 82% 0.2mm
12/02:53pm ESE 3-5 kts 20.8°c 1015.9 hPa 82% 0.2mm
12/02:30pm SSE 5-6 kts 21.0°c 1015.6 hPa 81% 0.2mm
12/02:00pm SSE 8-9 kts 20.9°c 1016.0 hPa 80% 0.2mm
12/01:30pm SSE 8-9 kts 20.7°c 1016.4 hPa 78% 0.2mm
12/01:00pm SSE 8-11 kts 21.5°c 1016.7 hPa 74% 0.2mm
12/12:30pm S 9-11 kts 21.4°c 1017.1 hPa 72% 0.2mm
12/12:00pm S 9-12 kts 21.8°c 1017.7 hPa 71% 0.0mm
12/11:30am S 9-12 kts 21.8°c 1018.3 hPa 70% 0.0mm
12/11:00am S 6-9 kts 21.1°c 1018.8 hPa 74% 0.0mm
12/10:30am SW 7-8 kts 21.3°c 1019.2 hPa 72% 0.0mm
12/10:00am SW 6-8 kts 20.9°c 1019.0 hPa 75% 0.0mm
12/09:30am SW 6-8 kts 20.1°c 1018.7 hPa 85% 0.0mm
12/09:00am W 4-5 kts 18.5°c 1018.8 hPa 89% 0.0mm
12/08:30am SW 4-5 kts 17.9°c 1018.8 hPa 93% 0.0mm
12/08:00am CALM 0 kts 17.6°c 1018.6 hPa 94% 0.0mm
12/07:30am W 2-4 kts 17.3°c 1018.3 hPa 95% 0.0mm
12/07:00am W 1-4 kts 16.1°c 1018.3 hPa 95% 0.0mm
12/06:30am W 3-5 kts 15.4°c 1018.0 hPa 95% 0.0mm
12/06:00am CALM 0 kts 15.4°c 1017.4 hPa 95% 0.0mm
12/05:30am W 3-6 kts 15.7°c 1017.3 hPa 95% 0.0mm
12/05:00am SW 5-6 kts 15.6°c 1016.9 hPa 94% 0.0mm
12/04:30am SW 5-6 kts 15.8°c 1016.8 hPa 95% 0.0mm
12/04:16am CALM 0-4 kts 15.4°c 1016.8 hPa 95% 0.0mm
12/04:00am CALM 0-2 kts 14.8°c 1016.9 hPa 94% 0.0mm
12/03:33am CALM 0-3 kts 15.0°c 1016.7 hPa 94% 0.0mm
12/03:30am W 1-4 kts 15.2°c 1016.7 hPa 94% 0.0mm
12/03:00am CALM 0 kts 15.2°c 1016.8 hPa 93% 0.0mm
12/02:30am W 3-4 kts 15.9°c 1016.9 hPa 94% 0.0mm
12/02:13am W 3-4 kts 15.8°c 1017.1 hPa 93% 0.0mm
12/02:00am W 3-4 kts 15.8°c 1017.3 hPa 93% 0.0mm
12/01:35am CALM 0 kts 16.2°c 1017.5 hPa 93% 0.0mm
12/01:30am CALM 0 kts 16.2°c 1017.6 hPa 93% 0.0mm
12/01:00am SW 3-6 kts 16.9°c 1017.5 hPa 93% 0.0mm
12/12:30am NW 5-6 kts 17.2°c 1017.0 hPa 91% 0.0mm
12/12:00am WNW 7-8 kts 17.6°c 1017.6 hPa 92% 0.0mm